When you browse on this site, cookies collect data to enhance your experience and personalize the content and advertising you see.
Visit our Privacy Policy to learn more. By continuing to use the site, you agree to this use of cookies and data.
  • In Hungary
  • List of Countries
  • For 7 days
  • Water Temperature
  • Weather Map
  • News
  • Weather Widgets
  • user-avatar
    Login

    Hourly Weather Englewood

    Today, 20 November, Wednesday

    Time Temperature Precipitation Wind Pressure Humidity
    00:00 +10°C° 0 mm 2 mps 616 mmHg 32%
    01:00 +10°C° 0 mm 2 mps 616 mmHg 32%
    02:00 +10°C° 0 mm 1 mps 615 mmHg 32%
    03:00 +10°C° 0 mm 1 mps 615 mmHg 33%
    04:00 +10°C° 0 mm 1 mps 614 mmHg 34%
    05:00 +10°C° 0 mm 1 mps 614 mmHg 35%
    06:00 +10°C° 0 mm 1 mps 614 mmHg 35%
    07:00 +10°C° 0 mm 1 mps 614 mmHg 36%
    08:00 +11°C° 0 mm 1 mps 615 mmHg 36%
    09:00 +10°C° 0 mm 2 mps 615 mmHg 38%
    10:00 +10°C° 0 mm 3 mps 615 mmHg 40%
    11:00 +10°C° 0 mm 4 mps 615 mmHg 42%
    12:00 +10°C° 0 mm 4 mps 615 mmHg 47%
    13:00 +8°C° 0 mm 4 mps 615 mmHg 51%
    14:00 +7°C° 0 mm 4 mps 615 mmHg 56%
    15:00 +6°C° 0.3 mm 4 mps 615 mmHg 64%
    16:00 +4°C° 0.3 mm 4 mps 615 mmHg 71%
    17:00 +2°C° 0.3 mm 5 mps 616 mmHg 78%
    18:00 +1°C° 0.6 mm 4 mps 616 mmHg 82%
    19:00 0°C° 0.6 mm 4 mps 617 mmHg 85%
    20:00 +1°C° 0.6 mm 3 mps 617 mmHg 88%
    21:00 0°C° 0.2 mm 3 mps 618 mmHg 90%
    22:00 0°C° 0.2 mm 3 mps 618 mmHg 91%
    23:00 0°C° 0.2 mm 3 mps 618 mmHg 92%

    Tomorrow, 21 November, Thursday

    Time Temperature Precipitation Wind Pressure Humidity
    00:00 -1°C° 0.2 mm 3 mps 618 mmHg 91%
    01:00 -2°C° 0.2 mm 3 mps 618 mmHg 90%
    02:00 -2°C° 0.2 mm 3 mps 618 mmHg 89%
    03:00 -4°C° 0.1 mm 3 mps 618 mmHg 88%
    04:00 -3°C° 0.1 mm 2 mps 619 mmHg 87%
    05:00 -3°C° 0.1 mm 2 mps 619 mmHg 86%
    06:00 -3°C° 0.1 mm 2 mps 619 mmHg 85%
    07:00 -3°C° 0.1 mm 2 mps 619 mmHg 85%
    08:00 -3°C° 0.1 mm 2 mps 619 mmHg 84%
    09:00 -3°C° 0.1 mm 2 mps 619 mmHg 81%
    10:00 -2°C° 0.1 mm 2 mps 619 mmHg 78%
    11:00 -2°C° 0.1 mm 2 mps 619 mmHg 75%
    12:00 -1°C° 0.1 mm 2 mps 619 mmHg 75%
    13:00 -1°C° 0.1 mm 2 mps 619 mmHg 74%
    14:00 -1°C° 0.1 mm 2 mps 618 mmHg 74%
    15:00 -1°C° 0.1 mm 2 mps 619 mmHg 77%
    16:00 -1°C° 0.1 mm 2 mps 619 mmHg 81%
    17:00 -2°C° 0.1 mm 2 mps 619 mmHg 84%
    18:00 -2°C° 0.1 mm 2 mps 619 mmHg 86%
    19:00 -2°C° 0.1 mm 2 mps 620 mmHg 88%
    20:00 -2°C° 0.1 mm 2 mps 620 mmHg 90%
    21:00 -2°C° 0.1 mm 2 mps 620 mmHg 90%
    22:00 0°C° 0.1 mm 1 mps 620 mmHg 90%
    23:00 0°C° 0.1 mm 1 mps 620 mmHg 90%

    Day after tomorrow, 22 November, Friday

    Time Temperature Precipitation Wind Pressure Humidity
    00:00 0°C° 0.6 mm 1 mps 620 mmHg 91%
    01:00 0°C° 0.6 mm 1 mps 620 mmHg 93%
    02:00 0°C° 0.6 mm 1 mps 620 mmHg 95%
    03:00 0°C° 0.4 mm 1 mps 620 mmHg 94%
    04:00 -1°C° 0.4 mm 0 mps 620 mmHg 93%
    05:00 -1°C° 0.4 mm 0 mps 620 mmHg 93%
    06:00 0°C° 0 mm 0 mps 620 mmHg 90%
    07:00 +1°C° 0 mm 1 mps 620 mmHg 87%
    08:00 +2°C° 0 mm 1 mps 620 mmHg 84%
    09:00 +3°C° 0 mm 1 mps 620 mmHg 82%
    10:00 +4°C° 0 mm 1 mps 620 mmHg 79%
    11:00 +6°C° 0 mm 1 mps 620 mmHg 77%
    12:00 +6°C° 0 mm 1 mps 620 mmHg 74%
    13:00 +7°C° 0 mm 1 mps 619 mmHg 71%
    14:00 +6°C° 0 mm 0 mps 619 mmHg 69%
    15:00 +7°C° 0 mm 1 mps 619 mmHg 70%
    16:00 +6°C° 0 mm 1 mps 619 mmHg 71%
    17:00 +5°C° 0 mm 1 mps 619 mmHg 73%
    18:00 +4°C° 0 mm 1 mps 619 mmHg 71%
    19:00 +3°C° 0 mm 2 mps 620 mmHg 68%
    20:00 +2°C° 0 mm 2 mps 620 mmHg 66%
    21:00 +2°C° 0 mm 2 mps 620 mmHg 65%
    22:00 +2°C° 0 mm 2 mps 621 mmHg 64%
    23:00 +1°C° 0 mm 2 mps 621 mmHg 63%

    23 November, Saturday

    Time Temperature Precipitation Wind Pressure Humidity
    00:00 +1°C° 0 mm 2 mps 622 mmHg 63%
    01:00 +1°C° 0 mm 2 mps 622 mmHg 63%
    02:00 0°C° 0 mm 3 mps 623 mmHg 62%
    03:00 0°C° 0 mm 3 mps 623 mmHg 62%
    04:00 -1°C° 0 mm 3 mps 623 mmHg 62%
    05:00 -1°C° 0 mm 3 mps 623 mmHg 62%
    06:00 0°C° 0 mm 3 mps 624 mmHg 61%
    07:00 +1°C° 0 mm 2 mps 624 mmHg 59%
    08:00 +1°C° 0 mm 2 mps 625 mmHg 58%
    09:00 +4°C° 0 mm 2 mps 625 mmHg 52%
    10:00 +6°C° 0 mm 2 mps 625 mmHg 46%
    11:00 +9°C° 0 mm 2 mps 625 mmHg 40%
    12:00 +10°C° 0 mm 2 mps 625 mmHg 37%
    13:00 +12°C° 0 mm 1 mps 625 mmHg 34%
    14:00 +13°C° 0 mm 1 mps 624 mmHg 31%
    15:00 +10°C° 0 mm 1 mps 624 mmHg 39%
    16:00 +8°C° 0 mm 1 mps 623 mmHg 47%
    17:00 +6°C° 0 mm 1 mps 622 mmHg 55%
    18:00 +6°C° 0 mm 1 mps 623 mmHg 55%
    19:00 +4°C° 0 mm 2 mps 623 mmHg 55%
    20:00 +4°C° 0 mm 2 mps 623 mmHg 55%
    21:00 +4°C° 0 mm 2 mps 623 mmHg 54%
    22:00 +3°C° 0 mm 3 mps 623 mmHg 52%
    23:00 +2°C° 0 mm 3 mps 623 mmHg 51%

    24 November, Sunday

    Time Temperature Precipitation Wind Pressure Humidity
    00:00 +3°C° 0 mm 3 mps 623 mmHg 48%
    01:00 +3°C° 0 mm 3 mps 622 mmHg 46%
    02:00 +3°C° 0 mm 3 mps 622 mmHg 43%
    03:00 +2°C° 0 mm 3 mps 622 mmHg 43%
    04:00 +2°C° 0 mm 3 mps 622 mmHg 42%
    05:00 +2°C° 0 mm 3 mps 621 mmHg 42%
    06:00 +2°C° 0 mm 3 mps 622 mmHg 42%
    07:00 +2°C° 0 mm 3 mps 622 mmHg 42%
    08:00 +3°C° 0 mm 3 mps 622 mmHg 42%
    09:00 +5°C° 0 mm 3 mps 622 mmHg 38%
    10:00 +9°C° 0 mm 3 mps 623 mmHg 34%
    11:00 +12°C° 0 mm 3 mps 623 mmHg 29%
    12:00 +13°C° 0 mm 2 mps 623 mmHg 28%
    13:00 +14°C° 0 mm 1 mps 622 mmHg 26%
    14:00 +15°C° 0 mm 1 mps 622 mmHg 24%
    15:00 +13°C° 0 mm 1 mps 621 mmHg 30%
    16:00 +10°C° 0 mm 2 mps 621 mmHg 36%
    17:00 +8°C° 0 mm 2 mps 620 mmHg 41%
    18:00 +8°C° 0 mm 2 mps 620 mmHg 44%
    19:00 +7°C° 0 mm 3 mps 619 mmHg 47%
    20:00 +5°C° 0 mm 3 mps 619 mmHg 50%
    21:00 +4°C° 0 mm 3 mps 619 mmHg 50%
    22:00 +4°C° 0 mm 3 mps 618 mmHg 50%
    23:00 +3°C° 0 mm 3 mps 618 mmHg 50%

    25 November, Monday

    Time Temperature Precipitation Wind Pressure Humidity
    00:00 +3°C° 0 mm 3 mps 617 mmHg 49%
    01:00 +3°C° 0 mm 3 mps 616 mmHg 49%
    02:00 +2°C° 0 mm 3 mps 616 mmHg 49%
    03:00 +2°C° 0 mm 3 mps 615 mmHg 49%
    04:00 +2°C° 0 mm 3 mps 615 mmHg 49%
    05:00 +2°C° 0 mm 3 mps 614 mmHg 49%
    06:00 +2°C° 0 mm 3 mps 614 mmHg 46%
    07:00 +3°C° 0 mm 3 mps 613 mmHg 44%
    08:00 +3°C° 0 mm 3 mps 613 mmHg 42%
    09:00 +7°C° 0 mm 3 mps 613 mmHg 36%
    10:00 +9°C° 0 mm 3 mps 613 mmHg 29%
    11:00 +12°C° 0 mm 3 mps 613 mmHg 23%
    12:00 +12°C° 0 mm 4 mps 612 mmHg 23%
    13:00 +12°C° 0 mm 4 mps 611 mmHg 23%
    14:00 +12°C° 0 mm 5 mps 610 mmHg 23%
    15:00 +9°C° 0 mm 5 mps 610 mmHg 28%
    16:00 +8°C° 0 mm 4 mps 609 mmHg 33%
    17:00 +6°C° 0 mm 4 mps 609 mmHg 38%
    18:00 +4°C° 0.4 mm 4 mps 609 mmHg 46%
    19:00 +1°C° 0.4 mm 4 mps 609 mmHg 54%
    20:00 0°C° 0.4 mm 4 mps 610 mmHg 61%
    21:00 -1°C° 0.2 mm 4 mps 610 mmHg 59%
    22:00 -1°C° 0.2 mm 4 mps 611 mmHg 58%
    23:00 -1°C° 0.2 mm 3 mps 611 mmHg 56%
    Show more